Location: ????????
(38.4362°N, 22.8767°E)
Time: 11:09:59
(UTC+00:00)

Cosmos 1766 - Pass Details

Date: 23 April 2024
Orbit: 487 x 505 km, 82.5° (Epoch: 18 May)

Event Time Altitude Azimuth Distance (km) Brightness Sun altitude
Rises 01:24:21 0° 357° (N) 2,565 7.3 -24.2°
Reaches altitude 10° 01:26:30 10° 3° (N) 1,680 6.3 -23.9°
Maximum altitude 01:30:06 53° 81° (E) 607 3.7 -23.4°
Enters shadow 01:30:35 48° 112° (ESE) 642 3.7 -23.3°
